Location: Usti nad Labem
(50.6670°N, 14.0330°E)
Time: 20:22:10
(UTC+01:00)

Envisat - Visible Passes

Search period start: 02 December 2020 00:00
Search period end: 12 December 2020 00:00
Orbit: 764 x 766 km, 98.1° (Epoch: 01 December)

Date Brightness Start Highest point End Pass type
(mag) Time Alt. Az. Time Alt. Az. Time Alt. Az.
02 Dec 4.0 05:41:44 10° NNE 05:46:42 49° E 05:51:36 10° S visible
02 Dec 3.2 17:01:04 10° SSE 17:06:09 81° WSW 17:11:17 10° NNW visible
02 Dec 6.2 18:43:47 10° WSW 18:46:01 13° W 18:48:15 10° WNW visible
03 Dec 5.3 05:05:26 10° NE 05:09:37 25° E 05:13:47 10° SSE visible
03 Dec 3.1 06:43:59 10° N 06:48:56 53° WNW 06:53:52 10° SW visible
03 Dec 5.3 18:04:32 10° SSW 18:08:43 25° W 18:12:56 10° NW visible
04 Dec 6.2 04:30:09 10° ENE 04:32:19 13° E 04:34:29 10° ESE visible
04 Dec 3.1 06:07:04 10° NNE 06:12:11 80° ESE 06:17:16 10° SSW visible
04 Dec 4.0 17:26:43 10° S 17:31:38 50° W 17:36:36 10° NNW visible
05 Dec 4.4 05:30:27 10° NNE 05:35:14 40° E 05:40:00 10° SSE visible
05 Dec 3.6 07:09:39 10° N 07:14:13 34° WNW 07:18:45 10° SW visible
05 Dec 3.0 16:49:40 10° SSE 16:54:45 84° ENE 16:59:53 10° NNW visible
05 Dec 6.0 18:31:24 10° SW 18:34:27 16° W 18:37:31 10° NW visible
06 Dec 5.5 04:54:19 10° NE 04:58:06 21° E 05:01:52 10° SE visible
06 Dec 3.0 06:32:32 10° N 06:37:35 65° WNW 06:42:36 10° SSW visible
06 Dec 5.0 17:52:45 10° SSW 17:57:14 31° W 18:01:44 10° NNW visible
07 Dec 3.4 05:55:42 10° NNE 06:00:47 65° ESE 06:05:50 10° S visible
07 Dec 3.6 17:15:11 10° S 17:20:12 61° WSW 17:25:16 10° NNW visible
08 Dec 4.8 05:19:11 10° NNE 05:23:46 33° E 05:28:19 10° SSE visible
08 Dec 3.4 06:58:08 10° N 07:02:54 41° WNW 07:07:38 10° SW visible
08 Dec 3.0 16:38:20 10° SSE 16:43:23 69° ENE 16:48:27 10° N visible
08 Dec 5.7 18:19:17 10° SW 18:22:55 19° W 18:26:34 10° NW visible
09 Dec 5.8 04:43:19 10° NE 04:46:34 17° E 04:49:48 10° SE visible
09 Dec 2.9 06:21:06 10° NNE 06:26:13 79° WNW 06:31:18 10° SSW visible
09 Dec 4.6 17:41:03 10° SSW 17:45:45 38° W 17:50:30 10° NNW visible
10 Dec 3.8 05:44:22 10° NNE 05:49:21 53° E 05:54:18 10° S visible
10 Dec 3.3 17:03:43 10° S 17:08:47 75° WSW 17:13:54 10° NNW visible
10 Dec 6.2 18:46:54 10° WSW 18:48:42 12° W 18:50:32 10° WNW visible
11 Dec 5.1 05:07:58 10° NE 05:12:17 27° E 05:16:34 10° SSE visible
11 Dec 3.2 06:46:39 10° N 06:51:33 50° WNW 06:56:26 10° SW visible
11 Dec 5.4 18:07:20 10° SW 18:11:23 24° W 18:15:28 10° NW visible
